星链-1527 (STARLINK-1527 )

导读 | 星芒AI

STARLINK-1527 是 SpaceX Starlink 项目中的一颗低轨通信卫星,属于第 15 批发射的 Starlink 卫星群。该卫星于 2021 年 5 月 28 日由猎鹰 9 号火箭从美国佛罗里达州肯尼迪航天中心发射升空。它运行在约 550 公里的轨道高度,旨在为全球用户提供高速互联网服务。Starlink 卫星采用先进的相控阵天线和激光通信技术,以实现低延迟和高带宽的连接。该项目致力于改善偏远地区的网络覆盖,推动全球互联网普及。

基本信息
目录编号:
46048
目录名称:
STARLINK-1527
国际标识:
2020-055X
轨道中心:
EARTH
卫星名称:
星链-1527
卫星全名:
星链-1527 (STARLINK-1527 )
卫星状态:
在轨 (已飞行1957 天)
发射日期:
2020-08-07 UTC
国别 :
美国 (US)
星等 :
--
轨道信息
数据来源 国际轨道数据
星历时间: 2025-12-15T00:14:35+0800
1天前
查看轨道信息
半长轴: 6925.324km
偏心率: 0.0001457
轨道倾角: 53.053°
近地点辐角 76.979°
升交点赤经 138.255°
平近点角 283.136°
近地点: 546.179km
远地点: 548.199km
周期: 95.592分钟
每日圈数: 15.064082
详细信息
固有亮度:
5
最大亮度:
2.5
卫星平台:
Starlink V1.0
覆盖范围:
全球
运营商:
太空探索技术公司
运营商所在国:
美国
制造商(研发单位):
太空探索技术公司
制造商所在国:
美国
使用方式:
暂无
卫星简介
星链(Starlink)计划是由太空探索技术公司(SpaceX)提出的一个巨型低轨卫星互联网星座项目,计划在2019年至2024年间在太空搭建由约1.2万颗卫星组成的“星链”网络,其中1584颗将部署在地球上空550千米处的近地轨道,并从2020年开始工作。该卫星仍在工作。
2D轨道图
3D轨道图
轨道高度分析图
轨道倾角分析图
轨道综合分析图
查看轨道综合分析图